Location: Ciserano
(45.5833°N, 9.6000°E)
Time: 17:39:23
(UTC+00:00)

FALCON 9 DEB - Pass Details

Date: 29 November 2020
Orbit: 376 x 396 km, 53.0° (Epoch: 22 January)

Event Time Altitude Azimuth Distance (km) Brightness Sun altitude
Exits shadow 05:22:53 25° 282° (WNW) 852 4.0 -13.1°
Maximum altitude 05:24:19 41° 337° (NNW) 590 3.5 -12.8°
Drops below altitude 10° 05:27:25 10° 50° (NE) 1,450 6.2 -12.3°
Sets 05:29:35 0° 57° (ENE) 2,314 7.4 -11.9°
